Location: Anmer
(52.8333°N, 0.5833°E)
Time: 07:42:56
(UTC+00:00)

Cosmos 1975 - Pass Details

Date: 15 May 2026
Orbit: 471 x 485 km, 82.5° (Epoch: 5 June)

Event Time Altitude Azimuth Distance (km) Brightness Sun altitude
Rises 23:26:54 0° 344° (NNW) 2,575 7.9 -17.9°
Reaches altitude 10° 23:29:05 10° 337° (NNW) 1,688 6.4 -17.9°
Maximum altitude 23:32:35 42° 266° (W) 705 3.3 -18.0°
Enters shadow 23:33:32 34° 226° (SW) 817 3.3 -18.0°
